Location: Paddlesworth
(51.1000°N, 1.1333°E)
Time: 09:14:46
(UTC+00:00)

Gblst 52 Del rocket - Pass Details

Date: 11 May 2021
Orbit: 806 x 1365 km, 51.5° (Epoch: 15 June)

Event Time Altitude Azimuth Distance (km) Brightness Sun altitude
Rises 22:14:02 0° 281° (W) 4,056 8.2 -17.5°
Reaches altitude 10° 22:16:57 10° 281° (W) 3,009 7.5 -17.7°
Maximum altitude 22:24:09 85° 195° (SSW) 1,020 4.5 -18.2°
Enters shadow 22:29:37 14° 108° (ESE) 2,344 6.1 -18.5°
